Weather in Nikulino

Russia / Kostroma Oblast     58°05′37″N   44°14′06″E
temp.,
°C
wind,
m/s
gust,
m/s
humid.,
%
clouds,
%
prec.,
mm/h
press.,
hPa
HPBL,
m
19 april, mon
mon1900:00+1ene4127598 0.0 1030508
03:00−1ene4128149 0.0 1031441
06:00−1ene412775 0.0 1031528
09:00+4e69511 0.0 1032958
12:00+7e68395 0.0 10311613
15:00+7e58365 0.0 10311672
18:00+5e48470 0.0 10311198
21:00+1ene311670 0.0 1032340
20 april, tue
tue2000:000e312680 0.0 1032359
03:00−1e311680 0.0 1032320
06:000e412570 0.0 1032480
09:00+5ese59360 0.0 1031967
12:00+9ese58350 0.0 10301542
15:00+10ese68340 0.0 10281603
18:00+8ese510425 0.0 10271131
21:00+4ese51354100 0.0 1026496
21 april, wed
wed2100:00+3ese51555100 0.0 1024600
03:00+2ese61655100 0.0 1021702
06:00+3ese71753100 0.0 1018854
09:00+1ese81880100 1.2 1016965
12:00+1se71896100 3.5 1014800
15:00+2se81690100 4.4 1013877
18:00+2se81792100 0.1 1012917
21:00+4sse71693100 0.4 10121160
22 april, thu
thu2200:00+5s61284100 0.1 10131206
03:00+4s51189100 0.2 1015933
06:00+4s41186100 0.1 1017521
09:00+6s51184100 0.3 10181034
12:00+9ssw597086 0.3 10181275
15:00+11ssw586481 0.9 10171403
18:00+9ssw387316 0.8 1019365
21:00+6s399367 1.1 1020286
23 april, fri
fri2300:00+4s279686 0.1 1021176
03:00+3sse25955 0.1 102289
06:00+4se389561 0.0 1022207
09:00+10sse477712 0.0 1021598
12:00+14s576456 0.6 10211381
15:00+15s58607 2.1 10201593
18:00+13s4106732 0.9 1020658
21:00+10sse4137920 0.9 1020401